This is the latest recevied weather packets stored in our database for station/object F5ZQC-13. If no packets are shown the sender has not sent any weather packets the latest 1 day(s).
| Time | Temp. | Humidity | Pressure | Rain* | Wind** | Luminosity | Snow |
|---|---|---|---|---|---|---|---|
| 1777966418 | 20° C | 43% | 1010 hPa | 0 mm | 1.34 m/s, 315° | - | - |
| 1777966200 | 19.44° C | 45% | 1009.9 hPa | 0 mm | 1.79 m/s, 315° | - | - |
| 1777966078 | 19.44° C | 46% | 1009.8 hPa | 0 mm | 2.24 m/s, 303° | - | - |
| 1777965834 | 18.89° C | 47% | 1009.9 hPa | 0 mm | 1.34 m/s, 292° | - | - |
| 1777965561 | 18.33° C | 48% | 1009.8 hPa | 0 mm | 1.79 m/s, 303° | - | - |
| 1777965076 | 17.78° C | 51% | 1009.7 hPa | 0 mm | 1.79 m/s, 337° | - | - |
| 1777964881 | 17.22° C | 50% | 1009.9 hPa | 0 mm | 2.68 m/s, 292° | - | - |
| 1777964637 | 16.67° C | 52% | 1009.6 hPa | 0 mm | 0.45 m/s, 315° | - | - |
| 1777964346 | 16.11° C | 53% | 1010 hPa | 0 mm | 1.79 m/s, 303° | - | - |
| 1777964306 | 16.11° C | 53% | 1010 hPa | 0 mm | 1.79 m/s, 303° | - | - |
| 1777964184 | 15.56° C | 54% | 1010 hPa | 0 mm | 1.79 m/s, 337° | - | - |
| 1777964100 | 15.56° C | 52% | 1009.8 hPa | 0 mm | 0.89 m/s, 337° | - | - |
| 1777964062 | 15.56° C | 52% | 1009.8 hPa | 0 mm | 0.89 m/s, 337° | - | - |
| 1777964000 | 15.56° C | 55% | 1009.9 hPa | 0 mm | 57.22 m/s, 281° | - | - |
| 1777963683 | 15° C | 54% | 1009.9 hPa | 0 mm | 1.34 m/s, 292° | - | - |
| 1777963564 | 15° C | 57% | 1009.8 hPa | 0 mm | 1.79 m/s, 292° | - | - |
| 1777963439 | 14.44° C | 56% | 1010.1 hPa | 0 mm | 1.34 m/s, 292° | - | - |
| 1777963306 | 14.44° C | 55% | 1010.1 hPa | 0 mm | 0.89 m/s, 337° | - | - |
| 1777962696 | 13.89° C | 57% | 1009.7 hPa | 0 mm | 0.45 m/s, 337° | - | - |
| 1777962572 | 13.89° C | 56% | 1009.8 hPa | 0 mm | 0 m/s | - | - |
| 1777962324 | 13.89° C | 56% | 1010.1 hPa | 0 mm | 0.45 m/s, 315° | - | - |
| 1777962085 | 13.33° C | 59% | 1009.7 hPa | 0 mm | 0.89 m/s, 315° | - | - |
| 1777961958 | 13.33° C | 55% | 1009.8 hPa | 0 mm | 0.45 m/s, 337° | - | - |
| 1777961835 | 13.33° C | 57% | 1009.7 hPa | 0 mm | 0.45 m/s, 348° | - | - |
| 1777961589 | 13.33° C | 57% | 1010.1 hPa | 0 mm | 1.79 m/s, 315° | - | - |
* Rain since midnight (hover to see other rain measurements)
** Current wind speed in m/s (hover to see current wind gust speed)